GW2834 Weather Reports


time (UTC)temp
C
wind
direction
speed
KPH
gust
KPH
rain 1hr
cm
rain 24hr
cm
rain mn
cm
humidity
%
barometer
mb
20260510192627 -17 150 1.6 6.4 0.00 0.00 0.00 1014.7
20260510191626 -17 159 1.6 4.8 0.00 0.00 0.00 1014.7
20260510190627 -17 143 1.6 6.4 0.00 0.00 0.00 1014.8
20260510190059 -17 254 3.2 8.0 0.00 0.00 0.00 1015.0
20260510184625 -17 162 1.6 14.5 0.00 0.00 0.00 1015.0
20260510184032 -17 294 1.6 4.8 0.00 0.00 0.00 1015.1
20260510183810 -17 153 1.6 8.0 0.00 0.00 0.00 1015.0
20260510181624 -17 27 3.2 6.4 0.00 0.00 0.00 1015.2
20260510181105 -17 45 1.6 8.0 0.00 0.00 0.00 1015.2
20260510175623 -17 68 1.6 4.8 0.00 0.00 0.00 1015.3
20260510174620 -17 233 1.6 4.8 0.00 0.03 0.00 1015.4
20260510174054 -17 107 1.6 4.8 0.00 0.03 0.00 1015.4
20260510172619 -17 166 1.6 4.8 0.00 0.03 0.00 1015.5
20260510172112 -17 4 1.6 6.4 0.00 0.03 0.00 1015.5
20260510170619 -17 48 1.6 6.4 0.00 0.03 0.00 1015.4
20260510165620 -17 27 3.2 8.0 0.00 0.03 0.00 1015.4
20260510164619 -17 81 3.2 11.3 0.00 0.03 0.00 1015.5
20260510163619 -17 329 1.6 6.4 0.00 0.03 0.00 1015.7
20260510163055 -17 52 1.6 8.0 0.00 0.03 0.00 1015.6
20260510161615 -17 156 1.6 6.4 0.00 0.03 0.00 1015.7
20260510161050 -17 40 1.6 6.4 0.00 0.03 0.00 1015.8
20260510155613 -17 145 3.2 11.3 0.00 0.03 0.00 1015.9
20260510154613 -17 35 1.6 8.0 0.00 0.03 0.00 1016.0
20260510153611 -17 13 1.6 6.4 0.00 0.03 0.00 1016.1
20260510152610 -17 23 1.6 4.8 0.00 0.03 0.00 1016.1
20260510151609 -17 94 1.6 4.8 0.00 0.03 0.00 1015.9
20260510150610 -17 18 1.6 8.0 0.00 0.03 0.00 1016.0
20260510150052 -17 38 1.6 4.8 0.00 0.03 0.00 1015.9
20260510144608 -17 40 1.6 4.8 0.00 0.03 0.00 1016.0
20260510143607 -17 32 1.6 4.8 0.00 0.03 0.00 1015.8
20260510142609 -17 32 1.6 4.8 0.00 0.03 0.00 1015.8
20260510141605 -17 32 1.6 4.8 0.00 0.03 0.00 1015.8
20260510141044 -17 65 1.6 4.8 0.00 0.03 0.00 1015.9
20260510135606 -17 75 1.6 4.8 0.00 0.03 0.00 1015.8
20260510134604 -17 72 3.2 8.0 0.00 0.03 0.00 1015.9
20260510133606 -17 61 1.6 4.8 0.00 0.03 0.00 1015.8
20260510133046 -17 42 1.6 4.8 0.00 0.03 0.00 1015.7
20260510132513 -17 345 1.6 4.8 0.00 0.03 0.00 1015.8
20260510130603 -17 320 0.0 3.2 0.00 0.03 0.00 1015.5
20260510125604 -17 320 0.0 3.2 0.00 0.03 0.00 1015.5
20260510124600 -17 320 0.0 1.6 0.00 0.03 0.00 1015.2
20260510123559 -17 320 0.0 3.2 0.00 0.03 0.00 1015.2
20260510123034 -17 317 0.0 1.6 0.00 0.03 0.00 1015.3
20260510121558 -17 317 0.0 0.0 0.00 0.03 0.00 1015.2
20260510120558 -17 317 0.0 0.0 0.00 0.03 0.00 1015.1
20260510115557 -17 317 0.0 1.6 0.00 0.03 0.00 1015.1
20260510114554 -17 317 0.0 0.0 0.00 0.03 0.00 1014.9
20260510114006 -17 317 0.0 1.6 0.00 0.03 0.00 1014.7
20260510113737 -17 317 0.0 1.6 0.00 0.03 0.00 1014.8
20260510112038 -17 317 0.0 1.6 0.00 0.03 0.00 1014.6
20260510110556 -17 317 0.0 3.2 0.00 0.03 0.00 1014.3
20260510110231 -17 319 0.0 0.0 0.00 0.03 0.00 1014.1
20260510110126 -17 319 0.0 0.0 0.00 0.03 0.00 1014.2
20260510103549 -17 319 0.0 0.0 0.00 0.03 0.00 1013.8
20260510102549 -17 319 0.0 0.0 0.00 0.03 0.00 1013.7
20260510101542 -17 319 0.0 0.0 0.00 0.03 0.00 1013.5
20260510100542 -17 319 0.0 0.0 0.00 0.03 0.00 1013.6
20260510095540 -17 319 0.0 0.0 0.00 0.03 0.00 1013.4
20260510094539 -17 319 0.0 0.0 0.00 0.03 0.00 1013.3
20260510093539 -17 319 0.0 0.0 0.00 0.03 0.00 1013.1
20260510093020 -17 319 0.0 0.0 0.00 0.03 0.00 1013.1
20260510091534 -17 319 0.0 0.0 0.00 0.03 0.00 1013.0
20260510090532 -17 319 0.0 0.0 0.00 0.03 0.00 1013.0
20260510085533 -17 319 0.0 0.0 0.00 0.03 0.00 1012.7
20260510084533 -17 319 0.0 0.0 0.00 0.03 0.00 1012.7
20260510083533 -17 319 0.0 0.0 0.00 0.03 0.00 1012.7
20260510082532 -17 319 0.0 0.0 0.00 0.03 0.00 1012.7
20260510081534 -17 319 0.0 0.0 0.00 0.03 0.00 1012.6
20260510081007 -17 319 0.0 0.0 0.00 0.03 0.00 1012.6
20260510075531 -17 319 0.0 0.0 0.00 0.03 0.00 1012.6
20260510074530 -17 319 0.0 0.0 0.00 0.03 0.00 1012.6
20260510073530 -17 319 0.0 0.0 0.00 0.03 0.00 1012.5
20260510072531 -17 319 0.0 0.0 0.00 0.03 0.00 1012.4
20260510071531 -17 319 0.0 0.0 0.00 0.03 0.00 1012.5
20260510070530 -17 319 0.0 0.0 0.00 0.03 0.00 1012.4
20260510065529 -17 319 0.0 0.0 0.00 0.03 0.00 1012.4
20260510064531 -17 319 0.0 0.0 0.00 0.03 0.00 1012.5
20260510063531 -17 319 0.0 0.0 0.00 0.03 0.00 1012.2
20260510063020 -17 319 0.0 0.0 0.00 0.03 0.00 1012.2
20260510061530 -17 319 0.0 0.0 0.00 0.03 0.00 1012.4
20260510060527 -17 319 0.0 0.0 0.00 0.03 0.00 1012.6
20260510055527 -17 319 0.0 0.0 0.00 0.03 0.00 1012.4
20260510054527 -17 319 0.0 0.0 0.00 0.03 0.00 1012.6
20260510053957 -17 319 0.0 0.0 0.00 0.03 0.00 1012.7
20260510052523 -17 319 0.0 0.0 0.00 0.03 0.00 1012.7
20260510051523 -17 319 0.0 0.0 0.00 0.03 0.00 1012.8
20260510050522 -17 319 0.0 0.0 0.00 0.03 0.00 1012.9
20260510045521 -17 319 0.0 0.0 0.00 0.03 0.00 1013.0
20260510044523 -17 319 0.0 0.0 0.00 0.03 0.00 1013.0
20260510043522 -17 319 0.0 0.0 0.00 0.03 0.00 1012.9
20260510042522 -17 319 0.0 0.0 0.00 0.03 0.00 1012.8
20260510041521 -17 319 0.0 0.0 0.00 0.03 0.00 1012.9
20260510040521 -17 319 0.0 0.0 0.00 0.03 0.00 1012.8
20260510040442 -17 319 0.0 0.0 0.00 0.03 0.03 1012.8
20260510034518 -17 319 0.0 0.0 0.00 0.03 0.03 1012.8
20260510033514 -17 319 0.0 0.0 0.00 0.03 0.03 1012.7
20260510032513 -17 319 0.0 0.0 0.00 0.03 0.03 1012.7
20260510031512 -17 319 0.0 0.0 0.00 0.03 0.03 1012.7
20260510030513 -17 319 0.0 0.0 0.00 0.03 0.03 1012.7
20260510025510 -17 319 0.0 0.0 0.00 0.03 0.03 1012.5
20260510024511 -17 319 0.0 0.0 0.00 0.03 0.03 1012.6
20260510023508 -17 319 0.0 0.0 0.00 0.03 0.03 1012.5
20260510022509 -17 319 0.0 0.0 0.00 0.03 0.03 1012.5
20260510022417 -17 319 0.0 0.0 0.00 0.03 0.03 1012.5
20260510020955 -17 319 0.0 0.0 0.00 0.03 0.03 1012.5
20260510015502 -17 319 0.0 0.0 0.00 0.03 0.03 1012.3
20260510014504 -17 319 0.0 0.0 0.00 0.03 0.03 1012.2
20260510013504 -17 319 0.0 0.0 0.00 0.03 0.03 1011.9
20260510012500 -17 319 0.0 0.0 0.00 0.03 0.03 1011.8
20260510011458 -17 319 0.0 0.0 0.00 0.03 0.03 1011.7
20260510010456 -17 319 0.0 0.0 0.00 0.03 0.03 1011.7
20260510005454 -17 319 0.0 0.0 0.00 0.03 0.03 1011.6
20260510004454 -17 319 0.0 0.0 0.00 0.03 0.03 1011.7
20260510003452 -17 319 0.0 0.0 0.00 0.03 0.03 1011.6
20260510002451 -17 319 0.0 0.0 0.00 0.03 0.03 1011.6
20260510001451 -17 319 0.0 0.0 0.00 0.03 0.03 1011.6
20260510000444 -17 319 0.0 1.6 0.00 0.03 0.03 1011.4
20260509235444 -17 319 0.0 0.0 0.00 0.03 0.03 1011.1
20260509234443 -17 319 0.0 0.0 0.00 0.03 0.03 1010.9
20260509233440 -17 319 0.0 1.6 0.00 0.03 0.03 1010.9
20260509232441 -17 319 0.0 1.6 0.00 0.03 0.03 1010.9
20260509231443 -17 319 0.0 3.2 0.00 0.03 0.03 1010.8
20260509230441 -17 319 0.0 1.6 0.00 0.03 0.03 1010.7
20260509225438 -17 319 0.0 3.2 0.00 0.03 0.03 1010.5
20260509224436 -17 319 1.6 4.8 0.00 0.03 0.03 1010.6
20260509223914 -17 171 1.6 6.4 0.00 0.03 0.03 1010.8
20260509222433 -17 247 1.6 3.2 0.00 0.03 0.03 1011.0
20260509221435 -17 182 1.6 8.0 0.00 0.03 0.03 1010.8
20260509220912 -17 200 1.6 4.8 0.00 0.03 0.03 1010.8
20260509215433 -17 114 1.6 6.4 0.00 0.03 0.03 1010.7
20260509214435 -17 267 1.6 6.4 0.00 0.03 0.03 1010.7
20260509213923 -17 238 1.6 6.4 0.00 0.03 0.03 1010.5
20260509212429 -17 144 1.6 6.4 0.00 0.03 0.03 1010.5
20260509211427 -17 283 1.6 6.4 0.00 0.03 0.03 1010.3
20260509210426 -17 263 1.6 9.7 0.00 0.03 0.03 1010.4
20260509205906 -17 317 3.2 9.7 0.00 0.03 0.03 1010.6
20260509204421 -17 136 0.0 6.4 0.00 0.03 0.03 1010.6
20260509203912 -17 164 1.6 4.8 0.00 0.03 0.03 1010.5
20260509202423 -17 277 1.6 4.8 0.00 0.03 0.03 1010.5
20260509201421 -17 223 1.6 8.0 0.00 0.03 0.03 1010.4
20260509200421 -17 144 1.6 8.0 0.00 0.03 0.03 1010.7
20260509195419 -17 196 0.0 4.8 0.00 0.03 0.03 1010.9
20260509194418 -17 136 1.6 4.8 0.00 0.03 0.03 1010.9
20260509193418 -17 225 1.6 4.8 0.00 0.03 0.03 1011.0